GW3577 Weather Reports


Display with metric or nautical units.
time (UTC)temp
F
wind
direction
speed
MPH
gust
MPH
rain 1hr
in
rain 24hr
in
rain mn
in
humidity
%
barometer
mb
20260906005744 75 98 0.0 0.0 0.00 0.00 0.00 89 1013.3
20260906005244 75 98 0.0 0.0 0.00 0.00 0.00 90 1013.3
20260906004737 75 98 0.0 0.0 0.00 0.00 0.00 88 1013.3
20260906004232 76 98 0.0 0.0 0.00 0.00 0.00 87 1013.3
20260906003727 76 98 0.0 0.0 0.00 0.00 0.00 86 1013.3
20260906003223 76 98 0.0 0.0 0.00 0.00 0.00 87 1013.3
20260906002723 76 98 0.0 0.0 0.00 0.00 0.00 86 1013.3
20260906002218 76 98 0.0 0.0 0.00 0.00 0.00 85 1013.0
20260906001713 77 98 0.0 0.0 0.00 0.00 0.00 84 1013.0
20260906001213 77 98 0.0 0.0 0.00 0.00 0.00 84 1013.0
20260906000709 78 98 0.0 0.0 0.00 0.00 0.00 82 1012.6
20260906000204 78 98 0.0 0.0 0.00 0.00 0.00 82 1012.6
20260905235702 78 98 0.0 0.0 0.00 0.00 0.00 81 1013.0
20260905235158 78 142 0.0 0.0 0.00 0.00 0.00 82 1012.6
20260905234653 78 142 0.0 0.0 0.00 0.00 0.00 82 1012.6
20260905234148 78 142 0.0 0.0 0.00 0.00 0.00 82 1012.6
20260905233644 78 142 0.0 0.0 0.00 0.00 0.00 83 1012.6
20260905233142 78 142 0.0 0.0 0.00 0.00 0.00 82 1012.6
20260905232638 78 142 0.0 0.0 0.00 0.00 0.00 81 1012.6
20260905232134 79 142 0.0 0.0 0.00 0.00 0.00 80 1012.6
20260905231629 79 142 0.0 0.0 0.00 0.00 0.00 80 1013.0
20260905231125 79 142 0.0 0.0 0.00 0.00 0.00 80 1012.6
20260905230620 79 142 0.0 0.0 0.00 0.00 0.00 80 1012.6
20260905230119 79 142 0.0 2.0 0.00 0.00 0.00 80 1013.0
20260905225618 79 142 0.0 2.0 0.00 0.00 0.00 80 1012.6
20260905225113 79 142 0.0 2.0 0.00 0.00 0.00 80 1012.6
20260905224607 80 142 2.0 3.0 0.00 0.00 0.00 79 1012.6
20260905224106 80 142 0.0 2.0 0.00 0.00 0.00 78 1012.6
20260905223559 80 142 4.0 5.0 0.00 0.00 0.00 78 1012.6
20260905223054 80 142 2.0 3.0 0.00 0.00 0.00 77 1012.6
20260905222554 80 142 1.0 4.0 0.00 0.00 0.00 77 1012.6
20260905222049 81 142 4.0 6.0 0.00 0.00 0.00 76 1012.6
20260905221545 81 142 4.0 6.0 0.00 0.00 0.00 75 1012.6
20260905221041 82 141 4.0 5.0 0.00 0.00 0.00 74 1012.3
20260905220537 82 131 5.0 8.0 0.00 0.00 0.00 73 1012.3
20260905220033 82 155 2.0 4.0 0.00 0.00 0.00 73 1012.3
20260905215532 82 155 2.0 3.0 0.00 0.00 0.00 73 1012.3
20260905215028 83 117 4.0 6.0 0.00 0.00 0.00 71 1012.3
20260905214524 84 78 3.0 4.0 0.00 0.00 0.00 69 1012.3
20260905214019 84 100 3.0 5.0 0.00 0.00 0.00 69 1012.0
20260905213514 84 177 2.0 4.0 0.00 0.00 0.00 70 1012.0
20260905213010 84 104 5.0 8.0 0.00 0.00 0.00 70 1012.0
20260905212504 84 114 5.0 11.0 0.00 0.00 0.00 70 1012.0
20260905212003 84 94 1.0 4.0 0.00 0.00 0.00 70 1012.0
20260905211459 83 94 1.0 4.0 0.00 0.00 0.00 71 1012.0
20260905210955 83 101 5.0 7.0 0.00 0.00 0.00 71 1012.0
20260905210450 84 87 5.0 10.0 0.00 0.00 0.00 69 1012.0
20260905205949 84 47 3.0 6.0 0.00 0.00 0.00 69 1012.0
20260905205444 84 106 7.0 10.0 0.00 0.00 0.00 69 1012.0
20260905204943 84 80 6.0 9.0 0.00 0.00 0.00 69 1012.0
20260905204439 85 105 6.0 13.0 0.00 0.00 0.00 69 1012.0
20260905203938 84 119 7.0 10.0 0.00 0.00 0.00 71 1012.0
20260905203434 85 97 9.0 11.0 0.00 0.00 0.00 68 1011.6
20260905202929 87 101 5.0 7.0 0.00 0.00 0.00 65 1011.6
20260905202424 87 109 6.0 9.0 0.00 0.00 0.00 65 1011.3
20260905201920 87 94 6.0 12.0 0.00 0.00 0.00 64 1011.3
20260905201415 86 106 4.0 6.0 0.00 0.00 0.00 65 1011.3
20260905200909 85 120 4.0 5.0 0.00 0.00 0.00 67 1011.3
20260905200405 85 126 4.0 7.0 0.00 0.00 0.00 68 1011.6
20260905195903 86 92 3.0 5.0 0.00 0.00 0.00 65 1011.6
20260905195358 87 122 4.0 5.0 0.00 0.00 0.00 62 1011.6
20260905194854 88 125 5.0 7.0 0.00 0.00 0.00 61 1011.3
20260905194353 88 108 5.0 6.0 0.00 0.00 0.00 63 1011.3
20260905193848 86 141 0.0 2.0 0.00 0.00 0.00 64 1012.0
20260905193343 86 136 6.0 8.0 0.00 0.00 0.00 67 1011.6
20260905192838 85 116 3.0 4.0 0.00 0.00 0.00 67 1012.0
20260905192334 86 40 2.0 6.0 0.00 0.00 0.00 66 1012.0
20260905191833 87 115 6.0 8.0 0.00 0.00 0.00 65 1012.0
20260905191332 88 104 1.0 4.0 0.00 0.00 0.00 65 1012.0
20260905190831 88 157 2.0 6.0 0.00 0.00 0.00 64 1012.0
20260905190325 88 95 4.0 8.0 0.00 0.00 0.00 59 1012.0
20260905185823 87 225 4.0 7.0 0.00 0.00 0.00 62 1012.0
20260905185318 87 130 5.0 7.0 0.00 0.00 0.00 63 1012.0
20260905184812 87 182 4.0 8.0 0.00 0.00 0.00 64 1012.3
20260905184311 87 177 2.0 4.0 0.00 0.00 0.00 64 1012.3
20260905183810 86 137 2.0 3.0 0.00 0.00 0.00 66 1012.6
20260905183306 85 212 3.0 6.0 0.00 0.00 0.00 68 1012.6
20260905182806 84 134 4.0 6.0 0.00 0.00 0.00 72 1012.6
20260905182300 83 94 4.0 6.0 0.00 0.00 0.00 72 1013.0
20260905181755 83 145 4.0 6.0 0.00 0.00 0.00 72 1013.3
20260905181254 83 144 3.0 4.0 0.00 0.00 0.00 72 1013.3
20260905180749 82 90 4.0 6.0 0.00 0.00 0.00 72 1013.3
20260905180244 82 97 6.0 8.0 0.00 0.00 0.00 72 1013.7
20260905175738 82 121 5.0 6.0 0.00 0.00 0.00 72 1013.3
20260905175233 82 135 4.0 6.0 0.00 0.00 0.00 72 1013.7
20260905174728 82 138 4.0 7.0 0.00 0.00 0.00 72 1013.7
20260905174224 82 125 0.0 2.0 0.00 0.00 0.00 72 1013.7
20260905173720 83 118 5.0 8.0 0.00 0.00 0.00 71 1013.7
20260905173216 83 115 6.0 8.0 0.00 0.00 0.00 71 1013.7
20260905172715 83 126 6.0 8.0 0.00 0.00 0.00 72 1013.3
20260905172209 83 122 6.0 8.0 0.00 0.00 0.00 71 1013.3
20260905171705 84 119 5.0 9.0 0.00 0.00 0.00 69 1013.3
20260905171201 85 147 5.0 10.0 0.00 0.00 0.00 67 1013.0
20260905170658 87 121 5.0 9.0 0.00 0.00 0.00 64 1012.6
20260905170157 86 144 1.0 3.0 0.00 0.00 0.00 64 1012.6
20260905165652 86 102 7.0 9.0 0.00 0.00 0.00 60 1012.6
20260905165147 86 119 4.0 6.0 0.00 0.00 0.00 58 1012.6
20260905164642 86 104 2.0 4.0 0.00 0.00 0.00 58 1013.0
20260905164141 86 104 1.0 2.0 0.00 0.00 0.00 58 1013.3
20260905163637 85 104 3.0 6.0 0.00 0.00 0.00 60 1013.0
20260905163134 84 43 1.0 4.0 0.00 0.00 0.00 62 1013.0
20260905162630 83 73 4.0 5.0 0.00 0.00 0.00 62 1013.3
20260905162129 84 74 4.0 6.0 0.00 0.00 0.00 61 1013.7
20260905161629 83 23 2.0 6.0 0.00 0.00 0.00 63 1014.0
20260905161126 82 151 3.0 5.0 0.00 0.00 0.00 65 1014.0
20260905160621 82 11 0.0 3.0 0.00 0.00 0.00 65 1013.7
20260905160120 82 87 3.0 5.0 0.00 0.00 0.00 66 1013.7
20260905155615 82 6 3.0 7.0 0.00 0.00 0.00 67 1013.7
20260905155114 82 63 4.0 7.0 0.00 0.00 0.00 67 1013.7
20260905154614 82 11 0.0 0.0 0.00 0.00 0.00 66 1014.3
20260905154109 82 12 5.0 7.0 0.00 0.00 0.00 65 1014.3
20260905153605 82 98 3.0 4.0 0.00 0.00 0.00 63 1014.3
20260905153101 83 55 2.0 4.0 0.00 0.00 0.00 62 1014.3
20260905152555 83 0 1.0 3.0 0.00 0.00 0.00 61 1014.7
20260905152050 82 358 4.0 6.0 0.00 0.00 0.00 62 1015.0
20260905151545 82 346 5.0 9.0 0.00 0.00 0.00 67 1015.0
20260905151041 82 83 0.0 3.0 0.00 0.00 0.00 68 1015.0
20260905150536 82 95 1.0 4.0 0.00 0.00 0.00 69 1015.0
20260905150034 82 298 0.0 0.0 0.00 0.00 0.00 66 1014.7
20260905145532 82 271 5.0 8.0 0.00 0.00 0.00 68 1014.7
20260905145026 81 133 1.0 2.0 0.00 0.00 0.00 76 1014.7
20260905144521 80 133 4.0 5.0 0.00 0.00 0.00 78 1014.7
20260905144020 81 325 0.0 0.0 0.00 0.00 0.00 78 1014.7
20260905143519 82 325 1.0 5.0 0.00 0.00 0.00 75 1014.3
20260905143015 82 106 0.0 2.0 0.00 0.00 0.00 73 1014.3
20260905142513 83 106 2.0 3.0 0.00 0.00 0.00 69 1014.3
20260905142010 84 106 0.0 0.0 0.00 0.00 0.00 68 1014.3
20260905141509 84 106 0.0 0.0 0.00 0.00 0.00 69 1014.3
20260905141006 84 106 1.0 2.0 0.00 0.00 0.00 68 1014.0
20260905140500 85 106 0.0 0.0 0.00 0.00 0.00 69 1013.7
20260905135959 83 106 0.0 0.0 0.00 0.00 0.00 70 1013.7
20260905135455 83 106 0.0 0.0 0.00 0.00 0.00 74 1013.7
20260905134950 82 106 0.0 0.0 0.00 0.00 0.00 74 1013.7
20260905134449 81 106 0.0 0.0 0.00 0.00 0.00 73 1013.7
20260905133948 81 106 0.0 0.0 0.00 0.00 0.00 73 1013.7
20260905133443 82 106 0.0 2.0 0.00 0.00 0.00 72 1013.7
20260905132937 82 106 0.0 0.0 0.00 0.00 0.00 72 1013.7
20260905132432 81 106 0.0 0.0 0.00 0.00 0.00 74 1013.3
20260905131927 80 106 0.0 0.0 0.00 0.00 0.00 77 1013.3
20260905131423 79 106 4.0 6.0 0.00 0.00 0.00 77 1013.3
20260905130918 79 106 0.0 0.0 0.00 0.00 0.00 79 1013.0
20260905130418 79 289 2.0 2.0 0.00 0.00 0.00 79 1013.0
20260905125917 78 289 0.0 0.0 0.00 0.00 0.00 82 1013.0
20260905125413 77 289 0.0 0.0 0.00 0.00 0.00 83 1013.0
20260905124908 77 289 0.0 0.0 0.00 0.00 0.00 84 1012.6
20260905124404 75 289 0.0 2.0 0.00 0.00 0.00 86 1013.0
20260905123904 75 289 0.0 0.0 0.00 0.00 0.00 89 1012.6
20260905123401 75 289 0.0 0.0 0.00 0.00 0.00 88 1013.0
20260905122856 74 289 0.0 0.0 0.00 0.00 0.00 88 1013.0
20260905122355 74 289 1.0 2.0 0.00 0.00 0.00 90 1013.3
20260905121850 73 289 0.0 0.0 0.00 0.00 0.00 92 1013.3
20260905121347 73 289 0.0 0.0 0.00 0.00 0.00 93 1013.3
20260905120845 72 289 0.0 0.0 0.00 0.00 0.00 93 1013.3
20260905120340 71 289 0.0 0.0 0.00 0.00 0.00 94 1013.3
20260905115836 71 289 0.0 0.0 0.00 0.00 0.00 94 1013.3
20260905115335 70 289 0.0 0.0 0.00 0.00 0.00 95 1013.7
20260905114835 70 289 0.0 0.0 0.00 0.00 0.00 96 1013.3
20260905114334 69 289 0.0 0.0 0.00 0.00 0.00 97 1013.0
20260905113833 69 289 0.0 0.0 0.00 0.00 0.00 97 1013.3
20260905113329 68 289 0.0 0.0 0.00 0.00 0.00 97 1013.3
20260905112825 68 289 0.0 0.0 0.00 0.00 0.00 97 1013.3
20260905112319 68 289 2.0 6.0 0.00 0.00 0.00 97 1013.3
20260905111815 68 289 0.0 0.0 0.00 0.00 0.00 97 1013.3
20260905111314 68 289 0.0 0.0 0.00 0.00 0.00 98 1013.3
20260905110814 68 289 0.0 0.0 0.00 0.00 0.00 97 1013.3
20260905110308 68 289 0.0 0.0 0.00 0.00 0.00 98 1013.3
20260905105804 67 289 0.0 0.0 0.00 0.00 0.00 98 1013.3
20260905105305 67 289 0.0 0.0 0.00 0.00 0.00 98 1013.3
20260905104757 67 289 0.0 0.0 0.00 0.00 0.00 98 1013.3
20260905104253 67 289 0.0 0.0 0.00 0.00 0.00 97 1013.3
20260905103753 67 289 0.0 0.0 0.00 0.00 0.00 97 1013.0
20260905103249 68 289 0.0 0.0 0.00 0.00 0.00 97 1013.3
20260905102744 68 289 0.0 0.0 0.00 0.00 0.00 97 1013.0
20260905102241 68 289 0.0 0.0 0.00 0.00 0.00 96 1013.0
20260905101740 68 289 0.0 0.0 0.00 0.00 0.00 96 1013.0
20260905101238 68 289 0.0 0.0 0.00 0.00 0.00 97 1013.0
20260905100734 68 289 0.0 0.0 0.00 0.00 0.00 96 1013.0
20260905100229 68 289 0.0 0.0 0.00 0.00 0.00 96 1013.0
20260905095723 68 289 0.0 0.0 0.00 0.00 0.00 97 1013.0
20260905095223 68 289 0.0 0.0 0.00 0.00 0.00 97 1013.0
20260905094718 68 289 0.0 0.0 0.00 0.00 0.00 97 1013.0
20260905094213 68 289 0.0 0.0 0.00 0.00 0.00 97 1013.0
20260905093712 68 289 0.0 0.0 0.00 0.00 0.00 98 1013.0
20260905093209 67 289 0.0 0.0 0.00 0.00 0.00 98 1013.0
20260905092704 67 289 0.0 0.0 0.00 0.00 0.00 98 1013.0
20260905092159 67 289 0.0 0.0 0.00 0.00 0.00 98 1013.0
20260905091654 67 289 0.0 0.0 0.00 0.00 0.00 98 1013.0
20260905091153 67 289 0.0 0.0 0.00 0.00 0.00 98 1013.0
20260905090648 67 289 0.0 0.0 0.00 0.00 0.00 98 1013.0
20260905090144 68 289 0.0 0.0 0.00 0.00 0.00 98 1012.6
20260905085642 68 289 0.0 0.0 0.00 0.00 0.00 98 1012.6
20260905085137 68 289 0.0 0.0 0.00 0.00 0.00 98 1013.0
20260905084637 68 289 0.0 0.0 0.00 0.00 0.00 98 1013.0
20260905084132 68 289 0.0 0.0 0.00 0.00 0.00 98 1013.0
20260905083632 68 289 0.0 0.0 0.00 0.00 0.00 98 1013.0
20260905083128 68 289 0.0 0.0 0.00 0.00 0.00 98 1013.0
20260905082624 68 289 0.0 0.0 0.00 0.00 0.00 98 1013.3
20260905082119 68 289 0.0 0.0 0.00 0.00 0.00 98 1013.0
20260905081614 68 289 0.0 0.0 0.00 0.00 0.00 97 1013.3
20260905081109 68 289 0.0 0.0 0.00 0.00 0.00 97 1013.3
20260905080608 68 289 0.0 0.0 0.00 0.00 0.00 97 1013.3
20260905075556 68 289 0.0 0.0 0.00 0.00 0.00 97 1013.3
20260905075056 69 289 0.0 0.0 0.00 0.00 0.00 97 1013.3
20260905074555 69 289 0.0 0.0 0.00 0.00 0.00 96 1013.3
20260905074046 69 289 0.0 0.0 0.00 0.00 0.00 96 1013.7
20260905073542 69 289 0.0 0.0 0.00 0.00 0.00 97 1013.7
20260905073037 69 289 0.0 0.0 0.00 0.00 0.00 97 1013.7
20260905072536 69 289 0.0 0.0 0.00 0.00 0.00 97 1013.7
20260905072032 69 289 0.0 0.0 0.00 0.00 0.00 97 1013.7
20260905071529 69 289 0.0 0.0 0.00 0.00 0.00 97 1014.0
20260905071028 69 289 0.0 0.0 0.00 0.00 0.00 98 1014.3
20260905070524 68 289 0.0 0.0 0.00 0.00 0.00 98 1014.3
20260905070020 68 289 0.0 0.0 0.00 0.00 0.00 98 1014.3
20260905065517 68 289 0.0 0.0 0.00 0.00 0.00 98 1014.3
20260905065013 68 289 0.0 0.0 0.00 0.00 0.00 98 1014.3
20260905064507 69 289 0.0 0.0 0.00 0.00 0.00 98 1014.3
20260905064002 69 289 0.0 0.0 0.00 0.00 0.00 98 1014.3
20260905063456 69 289 0.0 0.0 0.00 0.00 0.00 97 1014.3
20260905062953 69 289 0.0 0.0 0.00 0.00 0.00 97 1014.7
20260905062452 69 289 0.0 0.0 0.00 0.00 0.00 97 1014.7
20260905061947 69 289 0.0 0.0 0.00 0.00 0.00 96 1015.0
20260905061442 69 289 0.0 0.0 0.00 0.00 0.00 96 1015.0
20260905060936 70 289 0.0 0.0 0.00 0.00 0.00 95 1015.0
20260905060432 70 289 0.0 0.0 0.00 0.00 0.00 95 1015.0
20260905055931 70 289 0.0 0.0 0.00 0.00 0.00 96 1015.4
20260905055426 69 289 0.0 0.0 0.00 0.00 0.00 96 1015.4
20260905054925 69 289 0.0 0.0 0.00 0.00 0.00 97 1015.4
20260905054422 69 289 0.0 0.0 0.00 0.00 0.00 97 1015.4
20260905053921 69 289 0.0 0.0 0.00 0.00 0.00 97 1015.8
20260905053416 69 289 0.0 0.0 0.00 0.00 0.00 97 1015.8
20260905052912 69 289 0.0 0.0 0.00 0.00 0.00 96 1015.8
20260905052411 69 289 0.0 0.0 0.00 0.00 0.00 96 1016.1
20260905051910 69 289 0.0 0.0 0.00 0.00 0.00 96 1016.1
20260905051407 69 289 0.0 0.0 0.00 0.00 0.00 96 1016.1
20260905050904 69 289 0.0 0.0 0.00 0.00 0.00 96 1016.1
20260905050359 69 289 0.0 0.0 0.00 0.00 0.00 96 1016.5
20260905045855 70 289 0.0 0.0 0.00 0.00 0.00 95 1016.5
20260905045350 70 289 0.0 0.0 0.00 0.00 0.00 94 1016.5
20260905044845 70 289 0.0 0.0 0.00 0.00 0.00 94 1016.5
20260905044340 70 289 0.0 0.0 0.00 0.00 0.00 94 1016.5
20260905043839 71 289 0.0 0.0 0.00 0.00 0.00 94 1016.5
20260905043333 71 289 0.0 0.0 0.00 0.00 0.00 94 1016.5
20260905042828 71 289 0.0 0.0 0.00 0.00 0.00 94 1016.5
20260905042323 71 289 0.0 0.0 0.00 0.00 0.00 94 1016.5
20260905041818 71 289 0.0 0.0 0.00 0.00 0.00 94 1016.8
20260905041314 71 289 0.0 0.0 0.00 0.00 0.00 94 1016.5
20260905040809 71 289 0.0 0.0 0.00 0.00 0.00 93 1016.5
20260905040307 71 289 0.0 0.0 0.00 0.00 0.00 93 1016.8
20260905035802 71 289 0.0 0.0 0.00 0.00 0.00 93 1016.5
20260905035258 71 289 0.0 0.0 0.00 0.00 0.00 93 1016.8
20260905034755 71 289 0.0 0.0 0.00 0.00 0.00 93 1016.8
20260905034255 71 289 0.0 0.0 0.00 0.00 0.00 93 1016.8
20260905033753 71 289 0.0 0.0 0.00 0.00 0.00 93 1016.5
20260905033249 71 289 0.0 0.0 0.00 0.00 0.00 93 1016.5
20260905032748 71 289 0.0 0.0 0.00 0.00 0.00 93 1016.5
20260905032244 71 289 0.0 1.0 0.00 0.00 0.00 94 1016.5
20260905031738 71 113 0.0 0.0 0.00 0.00 0.00 94 1016.5
20260905031235 71 113 0.0 0.0 0.00 0.00 0.00 94 1016.5
20260905030734 71 113 0.0 0.0 0.00 0.00 0.00 94 1016.5
20260905030230 71 113 0.0 0.0 0.00 0.00 0.00 93 1016.8
20260905025724 71 327 0.0 0.0 0.00 0.00 0.00 93 1016.5
20260905025220 71 327 0.0 0.0 0.00 0.00 0.00 93 1016.5
20260905024715 71 327 0.0 0.0 0.00 0.00 0.00 92 1016.5
20260905024211 70 327 0.0 0.0 0.00 0.00 0.00 92 1016.5
20260905023707 71 327 0.0 0.0 0.00 0.00 0.00 92 1016.1
20260905023207 71 327 0.0 0.0 0.00 0.00 0.00 91 1016.1
20260905022705 71 327 0.0 0.0 0.00 0.00 0.00 90 1016.1
20260905022201 71 321 0.0 4.0 0.00 0.00 0.00 89 1016.1
20260905021655 71 198 0.0 0.0 0.00 0.00 0.00 89 1016.1
20260905021150 72 198 0.0 0.0 0.00 0.00 0.00 89 1015.8
20260905020645 72 198 0.0 0.0 0.00 0.00 0.00 88 1015.8
20260905020140 73 198 0.0 0.0 0.00 0.00 0.00 90 1015.4
20260905015639 73 198 0.0 0.0 0.00 0.00 0.00 90 1015.4
20260905015133 73 198 0.0 0.0 0.00 0.00 0.00 90 1015.4
20260905014627 73 198 0.0 0.0 0.00 0.00 0.00 91 1015.4
20260905014123 72 198 0.0 0.0 0.00 0.00 0.00 91 1015.0
20260905013620 72 198 0.0 0.0 0.00 0.00 0.00 91 1015.0
20260905013115 73 198 0.0 0.0 0.00 0.00 0.00 90 1015.0
20260905012614 73 198 0.0 0.0 0.00 0.00 0.00 90 1015.0
20260905012111 73 198 0.0 0.0 0.00 0.00 0.00 90 1014.7
20260905011607 73 198 0.0 0.0 0.00 0.00 0.00 89 1014.7
20260905011103 73 198 0.0 0.0 0.00 0.00 0.00 88 1014.7
20260905010601 73 198 0.0 0.0 0.00 0.00 0.00 87 1014.7